Location: Arrodets-la-Barthe
(43.0306°N, 0.2829°E)
Time: 18:12:50
(UTC+00:00)

STRAND 1 - Pass Details

Date: 01 April 2023
Orbit: 767 x 779 km, 98.4° (Epoch: 04 June)

Event Time Altitude Azimuth Distance (km) Brightness Sun altitude
Rises 04:47:28 0° 131° (SE) 3,245 ? -10.5°
Reaches altitude 10° 04:50:07 10° 119° (ESE) 2,320 ? -10.1°
Maximum altitude 04:54:15 26° 65° (ENE) 1,509 ? -9.3°
Drops below altitude 10° 04:58:23 10° 11° (N) 2,326 ? -8.6°
Sets 05:01:02 0° 359° (N) 3,255 ? -8.1°
